Regional Weather Roundup
Issued by NWS

Home | Current Version | Previous Version | Text Only | Print | Product List | Glossary Off
Versions: 1 2 3 4 5 6 7 8 9 10 11 12 13 14 15 16 17 18 19 20 21 22 23 24 25 26 27 28 29 30 31 32 33 34 35 36 37 38 39 40 41 42 43 44 45 46 47 48 49 50

161
ASUS45 KTFX 061410
RWRMT
MONTANA REGIONAL WEATHER ROUNDUP
NATIONAL WEATHER SERVICE GREAT FALLS MT
700 AM MST SAT FEB 06 2016

NOTE: "FAIR" INDICATES FEW OR NO CLOUDS BELOW 12000 FEET WITH NO
SIGNIFICANT WEATHER AND/OR OBSTRUCTIONS TO VISIBILITY.

MTZ001>007-043-061500-
WEST OF THE DIVIDE

CITY           SKY/WX    TMP DP  RH WIND       PRES   REMARKS
KALISPELL      CLOUDY    38  26  62 SW12      30.05R WCI  30
MISSOULA       LGT RAIN  37  30  75 NW12G22   30.16R WCI  29
BUTTE          PTCLDY    34  18  52 N5        30.07F
MULLAN PASS    FLURRIES  24  21  88 SW12G24   30.09R WCI  13
ANACONDA         N/A     36  19  51 S16G29    30.04F WCI  26
DEER LODGE       N/A     43  21  42 SW14G32   30.04R
HAMILTON         N/A     45  27  49 S12G22    30.12R
LIBBY            N/A     41  25  52 NW3       30.11R
PLAINS           N/A     41  25  53 S20       30.14R
THOMPSON FALLS   N/A     37  31  79 SW6       30.19R
$$

MTZ008-052>055-061500-
SOUTHWEST MONTANA

CITY           SKY/WX    TMP DP  RH WIND       PRES   REMARKS
BOZEMAN        CLOUDY    28  15  58 S9        30.06F WCI  19
DILLON         CLOUDY    24  15  68 W7        30.14F WCI  16
ENNIS          PTCLDY    32  18  55 SW22G36   30.21F WCI  19
THREE FORKS      N/A     38   2  22 SW22      30.02F WCI  27
TWIN BRIDGES     N/A     27  14  57 S17       30.11F WCI  14
$$

MTZ009-010-012-014-046-048-049-054-061500-
EAST SLOPES AND CENTRAL MONTANA

CITY           SKY/WX    TMP DP  RH WIND       PRES   REMARKS
CUT BANK       PTCLDY    33  25  72 W25G31    29.83R WCI  20
GREAT FALLS    CLEAR     42  21  43 SW31G45   29.84F
MALMSTROM AFB  CLEAR     43  22  43 SW33G44   29.86F
HELENA         CLOUDY    27  20  75 SE6       29.97F WCI  20
CHOTEAU          N/A     36  32  87 W17G33    29.93R FOG     WCI  25
CONRAD           N/A     37  33  85 SW24      29.90R WCI  25
$$

MTZ011-013-016-021-045-047-050-051-061500-
NORTH CENTRAL MONTANA

CITY           SKY/WX    TMP DP  RH WIND       PRES   REMARKS
HAVRE          CLOUDY    43  26  51 SW23G32   29.75F
LEWISTOWN      CLOUDY    41  23  48 W18       29.88F
N BAR RANCH      N/A     45  18  33 SW22G35   29.85F
CHINOOK          N/A     43  25  49 NW9       29.74F
$$

MTZ017>020-022>027-061-062-061500-
NORTHEAST MONTANA

CITY           SKY/WX    TMP DP  RH WIND       PRES   REMARKS
GLASGOW        CLOUDY    40  26  57 SW12      29.75F
JORDAN           N/A     40  28  62 W12       29.81F
SIDNEY         CLOUDY    36  25  64 S7        29.80F WCI  30
WOLF POINT     CLOUDY    40  28  62 W8        29.75F
PLENTYWOOD       N/A     39  28  65 SW9       29.70F
POPLAR           N/A     39  28  65 CALM      29.75F
SCOBEY           N/A     39  21  48 SW7       29.70F
$$

MTZ028>42-056>058-061500-
SOUTHCENTRAL AND SOUTHEAST MONTANA

CITY           SKY/WX    TMP DP  RH WIND       PRES   REMARKS
BAKER          CLOUDY    35  18  49 W15       29.91F WCI  25
BILLINGS       CLOUDY    40  16  37 SW20G26   29.96F
LIVINGSTON     CLOUDY    37  18  46 S43G59    29.97F WCI  22
MILES CITY     CLOUDY    39  22  50 SW9       29.90F
FORSYTH          N/A     45  19  36 SW12      29.91F
LAUREL           N/A     40  13  33 SW24      29.95F
ROUNDUP          N/A     41  19  41 SW6       29.83F
$$

REGIONAL REPORTS...DAKOTAS

CITY           SKY/WX    TMP DP  RH WIND       PRES   REMARKS
WILLISTON      CLOUDY    38  27  64 S9        29.75F WCI  31
MINOT          CLOUDY    40  25  55 SW16      29.71F
DICKINSON      CLOUDY    34  21  59 W14       29.81F WCI  25
BEACH            N/A     36  21  55 SW17G23   29.87F WCI  25
CROSBY           N/A     36  32  87 SW22G28   29.69F WCI  24
TIOGA            N/A     36  32  87 W20       29.76F WCI  25
WATFORD CITY     N/A     36  27  69 SW13      29.78S WCI  27
BISMARCK       CLOUDY    31  23  72 SW3       29.84F
GRAND FORKS    CLOUDY    24  18  77 S12       29.83F WCI  13
FARGO          CLOUDY    24  19  81 S12       29.88F WCI  13
BUFFALO SD       N/A     33  19  56 W14       29.86S WCI  23
RAPID CITY     CLOUDY    26  17  68 SW3       30.00F
$$

REGIONAL REPORTS...WYOMING/IDAHO/WASHINGTON

CITY           SKY/WX    TMP DP  RH WIND       PRES   REMARKS
GILLETTE       CLOUDY    33  20  58 SW21      30.01F WCI  21
SHERIDAN       MOCLDY    30  18  59 S2        29.96F
BUFFALO WY     CLOUDY    37  17  44 NE3       30.02S
CODY           CLOUDY    39  18  41 W20G38    30.11R WCI  30
YELLOWSTONE LA   N/A     21  16  81 VRB6      30.32S WCI  13
IDAHO FALLS    CLOUDY    14  11  87 N6        30.47R WCI   5
SALMON         CLOUDY     9   9 100 NE3       30.28S
BOISE          CLOUDY    33  27  78 S14       30.41S WCI  23
SPOKANE        PTCLDY    35  29  78 SW22      30.21R WCI  23
$$

REGIONAL REPORTS...ALBERTA

CITY           SKY/WX    TMP DP  RH WIND       PRES   REMARKS
EDMONTON       PTCLDY    41  25  52 W16G23    29.47R
CALGARY        MOCLDY    34  21  60 S3        29.53R
LETHBRIDGE     PTCLDY    39  27  60 SW36G48   29.66F WCI  26
MEDICINE HAT   PTCLDY    41  30  65 SW25G36   29.59F
WATERTON GATE    N/A     36  21  55 W23G35      N/A  WCI  24
CARDSTON         N/A     37  19  48 W23G35      N/A  WCI  26
MILK RIVER       N/A     39  21  48 W36G45      N/A  WCI  26
ONEFOUR          N/A     43  27  52 W26G37      N/A
$$

REGIONAL REPORTS...SASKATCHEWAN

CITY           SKY/WX    TMP DP  RH WIND       PRES   REMARKS
SWIFT CURRENT  CLOUDY    45  27  49 SW30G41   29.53F
REGINA         MOCLDY    37  28  70 SW15      29.57F WCI  28
SASKATOON      CLOUDY    34  27  75 SW10      29.45F WCI  26
CYPRESS HILLS    N/A     36  23  60 SW16G23     N/A  WCI  26
ROCKGLEN         N/A     37  28  70 SW22G29     N/A  WCI  27
ASSINIBOIA       N/A     41  27  56 W22G28      N/A
$$




USA.gov is the U.S. government's official web portal to all federal, state and local government web resources and services.